{"data":{"norad_id":65466,"intl_designator":"2025-195J","name":"STARLINK-35027","alt_names":[],"object_type":"PAYLOAD","status":"ACTIVE","operator":null,"country":"US","launch_date":"2025-09-03","launch_site_code":"AFETR","launch_vehicle":null,"mission":null,"orbit_class":"UNKNOWN","rcs_meters":null,"size_class":null,"mass_kg":null,"dimensions":null,"purposes":["comms"],"wikipedia_slug":null,"has_3d_model":false,"image_url":null,"decayed_at":null,"tle_current":{"epoch":"2026-09-20T21:52:03.918144Z","epoch_age_seconds":79421,"freshness":"FRESH","line1":"1 65466U 25195J   26263.91115646  .00013918  00000+0  42243-3 0  9990","line2":"2 65466  53.1579  67.8062 0001492  82.1141 278.0031 15.34388796 59932","mean_motion":15.34388796,"eccentricity":0.0001492,"inclination_deg":53.1579,"raan_deg":67.8062,"arg_perigee_deg":82.1141,"mean_anomaly_deg":278.0031,"bstar":0.00042243,"rev_number":5993,"period_min":93.848443351121,"perigee_km":461.71588272655,"apogee_km":463.7571993912,"semimajor_km":6840.8735410589,"source":"CELESTRAK","updated_at":"2026-09-21T09:00:35.615487Z"}}}